Location: Wingville
(42.9917°N, 90.4915°W)
Time: 02:03:31
(UTC+00:00)

Cosmos 1805 Rocket - Pass Details

Date: 07 December 2022
Orbit: 604 x 629 km, 82.5° (Epoch: 03 February)

Event Time Altitude Azimuth Distance (km) Brightness Sun altitude
Rises 00:46:23 0° 346° (NNW) 2,917 7.1 -24.7°
Reaches altitude 10° 00:48:39 10° 342° (NNW) 2,009 6.3 -25.1°
Maximum altitude 00:52:58 52° 267° (W) 780 4.3 -25.8°
Drops below altitude 10° 00:57:17 10° 190° (S) 2,001 6.3 -26.6°
Sets 00:59:33 0° 186° (S) 2,904 7.2 -27.0°
